Location: Unspecified
(48.8656°N, 0.0000°E)
Time: 09:02:36
(UTC+00:00)

SR - Pass Details

Date: 30 June 2019
Orbit: 578 x 878 km, 66.7° (Epoch: 24 August)

Event Time Altitude Azimuth Distance (km) Brightness Sun altitude
Rises 10:13:04 0° 323° (NW) 3,021 ? 56.3°
Reaches altitude 10° 10:15:18 10° 322° (NW) 2,147 ? 56.6°
Maximum altitude 10:20:11 78° 237° (WSW) 755 ? 57.2°
Drops below altitude 10° 10:25:32 10° 152° (SSE) 2,335 ? 57.8°
Sets 10:28:02 0° 151° (SSE) 3,305 ? 58.1°
